Location: Auckland
(36.8670°S, 174.7670°E)
Time: 20:08:37
(UTC+12:00)

A-11 Canister half - Pass Details

Date: 22 July 2019
Orbit: 1526 x 1683 km, 47.3° (Epoch: 18 August)

Event Time Altitude Azimuth Distance (km) Brightness Sun altitude
Rises 11:08:32 0° 264° (W) 4,724 11.3 29.8°
Reaches altitude 10° 11:11:46 10° 257° (WSW) 3,760 10.8 30.0°
Maximum altitude 11:20:52 46° 185° (S) 2,055 9.6 30.6°
Drops below altitude 10° 11:30:17 10° 113° (ESE) 3,881 11.1 31.2°
Sets 11:33:42 0° 107° (ESE) 4,888 11.6 31.4°
